Location: Erdweis
(48.5167°N, 15.3500°E)
Time: 14:02:39
(UTC+00:00)

NOSS 2-2 (C) - Pass Details

Date: 20 January 2021
Orbit: 463 x 1745 km, 63.3° (Epoch: 03 March)

Event Time Altitude Azimuth Distance (km) Brightness Sun altitude
Rises 17:54:21 0° 317° (NW) 2,810 7.5 -22.1°
Reaches altitude 10° 17:57:01 10° 338° (NNW) 2,065 6.4 -22.5°
Enters shadow 17:59:32 18° 11° (NNE) 1,759 5.7 -22.9°
